[[{"header":{"parameterUnit":"m.s-1","parameterCategory":1,"la1":30.2991,"la2":30.254,"lo1":-89.0895,"lo2":-89.0444,"dy":0.0017,"dx":0.0017,"nx":28,"ny":28,"refTime":"2026-01-31T03:00:00:Z","depth":0,"parameterNumber":2,"parameterNumberName":"U-component_of_WINDS"},"data":[0,0,0,0,0,0,0,0,0,0,0,0,0,0,0,0,0,0,0,0,0,0,0,0,0,0,0,0,0,0,0,0,0,0,0,0,0,0,0,0,0,0,0,0,0,0,0,0,0,0,0,0,0,0,0,0,0,0,2.2123,2.2123,0,2.2144,2.2144,2.2144,2.2113,2.2112,2.2111,2.211,2.213,2.2132,2.2133,0,0,0,0,0,0,0,0,0,0,0,0,0,2.2057,2.2058,2.2123,2.2123,2.2123,2.2144,2.2144,2.2144,2.2113,2.2112,2.2111,2.211,2.213,2.2132,2.2133,0,0,0,0,0,0,0,0,0,0,0,0,0,2.2082,2.2058,2.2123,2.211,2.211,2.2144,2.2144,2.2144,2.2114,2.2112,2.211,2.2109,2.2129,2.2131,2.2134,2.218,0,0,2.2141,2.2142,0,0,0,0,0,0,0,0,2.2081,2.2085,2.2112,2.2111,2.211,2.2124,2.2128,2.2156,2.2114,2.2112,2.211,2.2108,2.2129,2.2132,2.2139,2.2181,2.2182,2.2141,2.2142,2.2143,2.2144,0,0,0,0,0,0,0,2.2079,2.2084,2.2131,2.2112,2.2112,2.2104,2.2106,2.2133,2.213,2.2112,2.211,2.2113,2.2129,2.2137,2.2139,2.2182,2.2141,2.2143,2.2144,2.2145,2.2266,2.2268,0,0,0,0,0,0,2.2079,2.2082,2.213,2.2132,2.2091,2.2106,2.2109,2.2121,2.2129,2.2129,2.2114,2.2111,2.2134,2.2137,2.214,2.2196,2.2143,2.2145,2.2147,2.2264,2.2266,2.2268,0,0,0,0,0,0,2.2078,2.2083,2.213,2.2106,2.2112,2.2109,2.2124,2.2123,2.2131,2.2131,2.213,2.2123,2.2133,2.2137,2.2171,2.2196,2.2146,2.2149,2.2262,2.2265,2.2267,2.2308,0,0,0,0,0,0,2.2076,2.2083,2.2101,2.2107,2.2113,2.216,2.2126,2.2124,2.2135,2.2131,2.2139,2.2139,2.2132,2.2168,2.2173,2.2199,2.215,2.226,2.2263,2.2266,2.2305,2.2312,2.2319,0,0,0,0,0,2.2073,2.2111,2.2102,2.2108,2.2135,2.2162,2.2165,2.2157,2.2137,2.2155,2.2155,2.2138,2.2193,2.2171,2.2177,2.2204,2.2258,2.2262,2.2266,2.2302,2.2311,2.2318,0,0,0,0,0,0,2.2106,2.2111,2.2101,2.2142,2.2152,2.2157,2.2178,2.2166,2.2181,2.2177,2.2166,2.2168,2.2205,2.2208,2.2184,2.225,2.2222,2.2228,2.2247,2.2256,2.2263,2.2261,2.2152,0,0,0,0,0,2.2119,2.214,2.2143,2.2179,2.2184,2.2181,2.2192,2.2185,2.2194,2.2198,2.2201,2.2211,2.223,2.2243,2.2261,2.2305,2.2307,2.2327,2.2334,2.2339,2.2344,2.2369,2.2378,2.2282,2.2282,2.2282,0,0,2.2143,2.2149,2.2163,2.2185,2.2192,2.2215,2.2184,2.2209,2.2226,2.2202,2.2235,2.2238,2.2248,2.2288,2.2306,2.2291,2.2371,2.2344,2.2349,2.2351,2.2374,2.2384,2.2392,2.2284,2.2284,2.2283,0,0,2.2201,2.2207,2.2238,2.2246,2.2257,2.2255,2.2262,2.2269,2.227,2.2304,2.2286,2.2306,2.234,2.2348,2.2357,2.242,2.2405,2.2426,2.2462,2.2487,2.2494,2.2501,2.2524,2.2533,2.2431,2.2431,2.2431,0,2.223,2.2264,2.2255,2.2282,2.2293,2.2273,2.2305,2.2312,2.2329,2.2337,2.2321,2.2364,2.2369,2.2411,2.2427,2.2435,2.2443,2.2425,2.2494,2.2501,2.2507,2.2529,2.2538,2.2433,2.2433,2.2433,2.2433,0,2.23,2.2324,2.2348,2.2365,2.2379,2.2408,2.2404,2.2418,2.241,2.241,2.2445,2.2451,2.247,2.248,2.2472,2.2522,2.2513,2.2496,2.2467,2.2519,2.2539,2.2548,2.2437,2.2436,2.2435,2.2435,0,0,2.2378,2.2391,2.24,2.2408,2.242,2.2439,2.2467,2.2487,2.25,2.2513,2.2537,2.2567,2.2552,2.2561,2.2554,2.2576,2.2627,2.2556,2.2556,2.257,2.2684,2.2697,2.2707,2.2618,2.2619,2.2621,2.2683,0,2.2435,2.2485,2.2479,2.2527,2.255,2.2532,2.2557,2.2568,2.2569,2.2588,2.2589,2.261,2.2588,2.2594,2.2615,2.2616,2.265,2.2612,2.2641,2.2642,2.2639,2.2718,2.2731,2.279,2.2691,2.2693,2.2693,0,2.2509,2.2526,2.2576,2.2586,2.2596,2.2618,2.2637,2.2655,2.2667,2.2666,2.2679,2.2668,2.2698,2.2669,2.271,2.2684,2.2696,2.2699,2.2701,2.2703,2.2671,2.2723,2.2808,2.2818,2.2706,2.2705,2.2704,0,2.2562,2.2596,2.2632,2.2639,2.2651,2.2668,2.2674,2.2684,2.2697,2.2713,2.2722,2.2741,2.2751,2.2767,2.2762,2.2741,2.2805,2.2775,2.2805,2.2805,2.2819,2.2818,2.2908,2.2826,2.2826,2.2826,2.2826,0,2.2627,2.2659,2.2656,2.2677,2.2713,2.2706,2.2741,2.2745,2.2754,2.2777,2.2762,2.2784,2.2776,2.2797,2.2794,2.2829,2.2834,2.2834,2.2833,2.2836,2.2836,2.2843,2.2839,2.2828,2.2828,2.2827,2.2827,0,2.2692,2.269,2.2728,2.2737,2.274,2.2766,2.2774,2.2795,2.2795,2.2824,2.283,2.2831,2.2855,2.2852,2.2879,2.2877,2.2921,2.2914,2.2917,2.2916,2.2946,2.2944,2.3045,2.3058,2.2967,2.2967,2.2968,0,2.2733,2.2758,2.277,2.2785,2.2792,2.2815,2.2829,2.2823,2.2838,2.2854,2.2873,2.2896,2.2914,2.2954,2.2957,2.2978,2.2972,2.3006,2.2975,2.2978,2.2974,2.2973,2.2975,2.3012,2.3013,2.3014,2.3015,0,2.2808,2.2807,2.2827,2.2848,2.2865,2.2881,2.2895,2.2908,2.2903,2.2921,2.2946,2.296,2.2989,2.3012,2.3032,2.3038,2.3027,2.3025,2.3033,2.3036,2.3037,2.3038,2.2934,2.3022,2.3022,2.3021,2.3021,2.302,2.2863,2.2885,2.2898,2.2921,2.2932,2.2946,2.2966,2.297,2.2991,2.3014,2.3009,2.3038,2.305,2.3076,2.3085,2.3107,2.3095,2.3107,2.311,2.3113,2.3117,2.3034,2.3111,2.3111,2.3111,2.311,2.311,0,2.2938,2.2946,2.2968,2.2989,2.3008,2.2996,2.3011,2.3028,2.3054,2.3067,2.3085,2.3115,2.3138,2.3144,2.3166,2.3183,2.3179,2.319,2.3188,2.319,2.3126,2.3117,2.3193,2.3193,2.3193,2.3193,2.3193,2.3193,2.2979,2.3016,2.3016,2.3058,2.3065,2.3094,2.3104,2.3117,2.3128,2.3162,2.3182,2.3185,2.3196,2.3219,2.324,2.3241,2.325,2.3264,2.3263,2.3203,2.3194,2.3187,2.3178,2.3266,2.3266,2.3325,2.3325,2.3326]},{"header":{"parameterUnit":"m.s-1","parameterCategory":1,"la1":30.2991,"la2":30.254,"lo1":-89.0895,"lo2":-89.0444,"dy":0.0017,"dx":0.0017,"nx":28,"ny":28,"refTime":"2026-01-31T03:00:00:Z","depth":0,"parameterNumber":3,"parameterNumberName":"V-component_of_WINDS"},"data":[0,0,0,0,0,0,0,0,0,0,0,0,0,0,0,0,0,0,0,0,0,0,0,0,0,0,0,0,0,0,0,0,0,0,0,0,0,0,0,0,0,0,0,0,0,0,0,0,0,0,0,0,0,0,0,0,0,0,-3.999,-3.9992,0,-4.0142,-4.0143,-4.0145,-4.0178,-4.0177,-4.0176,-4.0175,-4.0327,-4.0332,-4.0337,0,0,0,0,0,0,0,0,0,0,0,0,0,-3.9728,-3.9732,-3.999,-3.9992,-3.9994,-4.0141,-4.0144,-4.0146,-4.0179,-4.0177,-4.0176,-4.0175,-4.0326,-4.0332,-4.0338,0,0,0,0,0,0,0,0,0,0,0,0,0,-3.9857,-3.9734,-3.999,-4.0028,-4.0033,-4.0141,-4.0144,-4.0146,-4.0179,-4.0177,-4.0176,-4.0174,-4.0324,-4.0331,-4.0339,-4.0418,0,0,-4.0362,-4.0365,0,0,0,0,0,0,0,0,-3.9849,-3.9866,-4.0021,-4.0026,-4.0032,-4.014,-4.0107,-4.0237,-4.0179,-4.0123,-4.0175,-4.0173,-4.0266,-4.0278,-4.031,-4.0425,-4.0431,-4.0362,-4.0367,-4.037,-4.0372,0,0,0,0,0,0,0,-3.984,-3.986,-4.005,-4.0023,-4.003,-4.0037,-4.0054,-4.0132,-4.0202,-4.0128,-4.0131,-4.0149,-4.0269,-4.0303,-4.0314,-4.0434,-4.0362,-4.0369,-4.0374,-4.0377,-4.0623,-4.0625,0,0,0,0,0,0,-3.9825,-3.9852,-4.0045,-4.0054,-3.9935,-4.0043,-4.0062,-4.0106,-4.0201,-4.0214,-4.015,-4.015,-4.0291,-4.0305,-4.0319,-4.042,-4.037,-4.0377,-4.0382,-4.0621,-4.0624,-4.0626,0,0,0,0,0,0,-3.9819,-3.9842,-4.0039,-3.9954,-3.998,-4.005,-4.0099,-4.011,-4.0145,-4.0218,-4.023,-4.0172,-4.029,-4.0309,-4.0394,-4.0426,-4.0381,-4.0388,-4.0619,-4.0622,-4.0625,-4.0621,0,0,0,0,0,0,-3.9812,-3.984,-3.9871,-3.9955,-3.9984,-4.0111,-4.0101,-4.0114,-4.0158,-4.0159,-4.0242,-4.0254,-4.029,-4.0382,-4.0401,-4.0435,-4.0394,-4.0616,-4.062,-4.0624,-4.0618,-4.0623,-4.0627,0,0,0,0,0,-3.9802,-3.9862,-3.9872,-3.9895,-4.0025,-4.0113,-4.013,-4.0172,-4.016,-4.0192,-4.0239,-4.0251,-4.0419,-4.0391,-4.0412,-4.0449,-4.0615,-4.0619,-4.0624,-4.0616,-4.0622,-4.0627,0,0,0,0,0,0,-3.9778,-3.9874,-3.9886,-3.9975,-4.0036,-4.0119,-4.016,-4.0176,-4.0241,-4.0239,-4.0287,-4.0305,-4.0388,-4.0427,-4.0393,-4.0532,-4.0516,-4.0525,-4.0503,-4.051,-4.0514,-4.0503,-4.04,0,0,0,0,0,-3.9784,-3.9848,-3.9928,-3.9999,-4.0029,-4.0089,-4.0129,-4.0156,-4.0221,-4.0246,-4.03,-4.0361,-4.0428,-4.0471,-4.0536,-4.0624,-4.0643,-4.066,-4.0665,-4.0668,-4.0675,-4.0727,-4.0736,-4.0641,-4.0641,-4.0641,0,0,-3.9795,-3.9855,-3.9893,-3.9996,-4.0046,-4.0112,-4.011,-4.0179,-4.0229,-4.0256,-4.0341,-4.0382,-4.0454,-4.0541,-4.0582,-4.0577,-4.0706,-4.0674,-4.0676,-4.0682,-4.0732,-4.0741,-4.0749,-4.0644,-4.0643,-4.0643,0,0,-3.9849,-3.9901,-3.9967,-4.0018,-4.0095,-4.0135,-4.0151,-4.0232,-4.0261,-4.0347,-4.037,-4.0428,-4.0542,-4.0593,-4.0634,-4.071,-4.0724,-4.073,-4.0753,-4.0803,-4.081,-4.0817,-4.0846,-4.0855,-4.0737,-4.0737,-4.0737,0,-3.9853,-3.9954,-3.9998,-4.0068,-4.0113,-4.0143,-4.021,-4.0257,-4.0351,-4.0381,-4.0373,-4.0518,-4.0569,-4.0669,-4.0688,-4.072,-4.074,-4.072,-4.0806,-4.0813,-4.082,-4.0848,-4.0858,-4.0737,-4.0737,-4.0737,-4.0737,0,-3.9956,-4.0025,-4.0069,-4.0161,-4.0211,-4.0279,-4.0333,-4.0379,-4.0402,-4.0442,-4.053,-4.0592,-4.0671,-4.0697,-4.0719,-4.0801,-4.0796,-4.0796,-4.0782,-4.0829,-4.0856,-4.0866,-4.0738,-4.0737,-4.0737,-4.0737,0,0,-3.9999,-4.0116,-4.0132,-4.0175,-4.0263,-4.0317,-4.0386,-4.0465,-4.0504,-4.0568,-4.0627,-4.0724,-4.0726,-4.0772,-4.0801,-4.0844,-4.0902,-4.084,-4.0842,-4.085,-4.0998,-4.0998,-4.1009,-4.0912,-4.0914,-4.0916,-4.0993,0,-4.0065,-4.0191,-4.0234,-4.0338,-4.0403,-4.0434,-4.0494,-4.0555,-4.0595,-4.0656,-4.07,-4.0769,-4.0765,-4.0794,-4.0838,-4.0886,-4.0933,-4.0881,-4.0968,-4.0971,-4.095,-4.1023,-4.1023,-4.1092,-4.1003,-4.1005,-4.1006,0,-4.0158,-4.0226,-4.0337,-4.0419,-4.0448,-4.0502,-4.0579,-4.0637,-4.0706,-4.0733,-4.0786,-4.0811,-4.0885,-4.0866,-4.0969,-4.0933,-4.0971,-4.1,-4.1004,-4.1014,-4.0992,-4.1036,-4.1115,-4.1126,-4.1023,-4.1022,-4.102,0,-4.018,-4.0299,-4.0381,-4.0417,-4.0514,-4.0551,-4.0593,-4.0661,-4.0707,-4.0774,-4.0804,-4.0878,-4.0919,-4.0976,-4.1021,-4.1003,-4.112,-4.1104,-4.1144,-4.1143,-4.1168,-4.1166,-4.1255,-4.1191,-4.1191,-4.1191,-4.119,0,-4.025,-4.0317,-4.0393,-4.0443,-4.052,-4.0569,-4.0643,-4.0686,-4.0747,-4.0807,-4.0837,-4.0892,-4.0948,-4.1011,-4.1047,-4.1127,-4.1145,-4.1168,-4.1177,-4.1166,-4.1164,-4.1192,-4.1189,-4.1194,-4.1193,-4.1192,-4.1192,0,-4.0287,-4.034,-4.0432,-4.0518,-4.0541,-4.0593,-4.0666,-4.0717,-4.0759,-4.0834,-4.0855,-4.0921,-4.0996,-4.1047,-4.1143,-4.1167,-4.1255,-4.1263,-4.1232,-4.1237,-4.1274,-4.127,-4.1386,-4.1404,-4.1327,-4.1327,-4.1328,0,-4.0328,-4.0381,-4.0473,-4.0516,-4.0558,-4.0627,-4.0674,-4.0724,-4.0772,-4.0857,-4.0897,-4.0975,-4.104,-4.116,-4.1216,-4.129,-4.13,-4.1335,-4.1311,-4.1299,-4.1302,-4.1299,-4.1305,-4.1339,-4.134,-4.134,-4.1341,0,-4.0396,-4.0421,-4.0488,-4.0566,-4.0622,-4.0685,-4.0748,-4.0781,-4.0843,-4.0895,-4.0974,-4.1024,-4.1124,-4.1201,-4.1281,-4.1324,-4.1343,-4.1348,-4.1361,-4.1351,-4.1332,-4.1344,-4.1244,-4.1345,-4.1345,-4.1344,-4.1344,-4.1344,-4.0438,-4.0487,-4.056,-4.0634,-4.0688,-4.0747,-4.0799,-4.0849,-4.0916,-4.1002,-4.1027,-4.1109,-4.1179,-4.1288,-4.1333,-4.1398,-4.1394,-4.1413,-4.1418,-4.1422,-4.1423,-4.1321,-4.1412,-4.1412,-4.1412,-4.1412,-4.1412,0,-4.0508,-4.0557,-4.0626,-4.0714,-4.0774,-4.0788,-4.0859,-4.0907,-4.098,-4.1043,-4.1108,-4.1199,-4.1275,-4.1337,-4.1416,-4.1456,-4.1466,-4.1474,-4.1472,-4.1482,-4.1421,-4.1402,-4.1465,-4.1465,-4.1465,-4.1465,-4.1465,-4.1465,-4.0552,-4.0637,-4.067,-4.0781,-4.083,-4.0912,-4.0952,-4.1006,-4.1058,-4.1159,-4.1223,-4.1264,-4.1328,-4.1411,-4.1481,-4.1498,-4.1526,-4.1532,-4.155,-4.1492,-4.1486,-4.1481,-4.1463,-4.1537,-4.1538,-4.1607,-4.1607,-4.1608]}]]